Regional Weather Roundup
Issued by NWS

Home | Current Version | Previous Version | Text Only | Print | Product List | Glossary Off
Versions: 1 2 3 4 5 6 7 8 9 10 11 12 13 14 15 16 17 18 19 20 21 22 23 24 25 26 27 28 29 30 31 32 33 34 35 36 37 38 39 40 41 42 43 44 45 46 47 48 49 50

000
ASUS43 KLOT 150303
RWRIL

ILLINOIS REGIONAL WEATHER ROUNDUP
NATIONAL WEATHER SERVICE CHICAGO/ROMEOVILLE IL
900 PM CST THU DEC 14 2017

NOTE: "FAIR" INDICATES FEW OR NO CLOUDS BELOW 12,000 FEET WITH NO
SIGNIFICANT WEATHER AND/OR OBSTRUCTIONS TO VISIBILITY.

* THESE STATIONS ARE NOT UNDER NWS QUALITY CONTROL. THEY ALSO MAY NOT
  REPORT WEATHER SUCH AS PRECIPITATION OR FOG.

ILZ001-002-007-009-015-016-024-150400-
NORTHWEST ILLINOIS

CITY           SKY/WX    TMP DP  RH WIND       PRES   REMARKS
MOLINE         CLOUDY    26  16  65 W10       30.08F WCI  16
STERLING*        N/A    N/A N/A N/A MISG        N/A
SAVANNA*       CLOUDY    26  17  68 W7        30.06F WCI  18
$$

ILZ003-004-008-010-011-017-018-150400-
NORTH CENTRAL ILLINOIS

CITY           SKY/WX    TMP DP  RH WIND       PRES   REMARKS
ROCKFORD       CLOUDY    16   8  71 S6        30.07F WCI   7
FREEPORT*      CLOUDY    21  13  71 SW9       30.06F WCI  11
ROCHELLE*      MOCLDY    14   9  81 SW7       30.07S WCI   4
DE KALB*       MOCLDY    19  10  69 SW5       30.06S WCI  12
PERU*          MOCLDY    18   9  68 W3        30.09S
$$

ILZ005-006-012>014-019>023-150400-
NORTHEAST ILLINOIS

CITY           SKY/WX    TMP DP  RH WIND       PRES   REMARKS
CHICAGO-OHARE  MOCLDY    21  11  65 W3        30.06S
CHICAGO-MIDWAY PTCLDY    22  12  65 W5        30.07F WCI  16
AURORA         CLEAR     18  10  71 SW3       30.07F
LANSING*       PTCLDY    15  11  83 CALM      30.08S
JOLIET*        CLEAR     16  11  81 CALM      30.09S
WAUKEGAN       CLOUDY    20  12  71 SW3       30.04F
DUPAGE AIRPORT CLEAR     17  11  77 W3        30.05F
WHEELING       CLOUDY    22  12  65 SW5       30.08S WCI  16
NORTHERLY ISL    N/A     24  11  57 W5          N/A  WCI  18
$$

LMZ740>746-150400-
SOUTHERN LAKE MICHIGAN

STATION/POSITION SKY/WX   TEMP    WIND        PRES    VSBY  WAVE
                          AIR SEA DIR/SP/G                  HT/PER
                          (F)     (DEG/KT/KT) (MB)    (MI)  (FT/S)
HARRISON CRIB              26     270/  8/  9   N/A
BURNHAM HARBOR             24     290/  4/  8   N/A
CALUMET HARBOR             23     250/  3/  4 1017.8S
BURNS HARBOR               25     230/  7/ 10 1019.0S
MICHIGAN CITY              24     200/ 11/ 13   N/A
$$

ILZ025>027-034>036-040-047-049-050-058-095>099-150400-
WEST-CENTRAL ILLINOIS

CITY           SKY/WX    TMP DP  RH WIND       PRES   REMARKS
QUINCY         CLOUDY    28  19  69 SW3       30.11S
GALESBURG*     CLOUDY    27  19  72 W9        30.10S WCI  18
MACOMB*        CLOUDY    28  18  67 W9        30.13S WCI  19
PITTSFIELD*    CLOUDY    28  19  67 CALM      30.13R
$$

ILZ028>032-037-038-041>044-048-051>054-059>061-150400-
CENTRAL ILLINOIS

CITY           SKY/WX    TMP DP  RH WIND       PRES   REMARKS
BLOOMINGTON    PTCLDY    21  15  78 CALM      30.10S
DECATUR        CLOUDY    26  17  68 NW7       30.11S WCI  18
PEORIA         CLOUDY    24  15  68 CALM      30.10F
LACON*         CLOUDY    19  15  84 CALM      30.09F
LINCOLN*       PTCLDY    27  18  70 CALM      30.11S
SPRINGFIELD    CLOUDY    27  17  66 W3        30.12S
TAYLORVILLE    CLOUDY    26  17  66 W5        30.12S WCI  21
$$

ILZ033-039-045-046-055>057-062-063-150400-
EAST-CENTRAL ILLINOIS

CITY           SKY/WX    TMP DP  RH WIND       PRES   REMARKS
CHAMPAIGN      CLOUDY    23  15  71 W5        30.10S WCI  17
DANVILLE*      CLOUDY    24  17  74 W3        30.06S
MATTOON        CLOUDY    28  19  69 NW7       30.09F WCI  21
$$

ILZ079-100>102-150400-
SOUTHWEST ILLINOIS

CITY           SKY/WX    TMP DP  RH WIND       PRES   REMARKS
ALTON          CLOUDY    30  19  64 NW8       30.13S WCI  23
BELLEVILLE     CLOUDY    30  18  60 CALM      30.12R
CAHOKIA*       CLOUDY    32  19  58 NW9       30.14R WCI  24
SPARTA*        CLOUDY    30  22  71 CALM      30.14S
$$

ILZ064>066-069>071-074>076-080>082-084>086-088>090-092>094-150400-
SOUTH-CENTRAL ILLINOIS

CITY           SKY/WX    TMP DP  RH WIND       PRES   REMARKS
CARBONDALE     CLOUDY    31  22  69 NW3       30.13R
CAIRO*         CLOUDY    32  24  73 CALM      30.14R
EFFINGHAM*     CLOUDY    31  21  67 NW7       30.13S WCI  24
MARION         CLOUDY    32  21  62 CALM      30.13S
MT. VERNON     CLOUDY    31  21  66 CALM      30.13R
CENTRALIA*     CLOUDY    31  22  69 NW5       30.11S WCI  26
SALEM*         CLOUDY    31  20  63 NW7       30.12R WCI  24
METROPOLIS*    CLOUDY    33  21  62 N3        30.13R
$$

ILZ067-068-072-073-078-083-087-091-150400-
SOUTHEAST ILLINOIS

CITY           SKY/WX    TMP DP  RH WIND       PRES   REMARKS
LAWRENCEVILLE  CLOUDY    31  21  66 W3        30.12R
FLORA*         CLOUDY    32  22  66 NW3       30.12F
HARRISBURG*    CLOUDY    31  22  69 NW5       30.13R WCI  27
ROBINSON*      CLOUDY    29  22  76 NW3       30.13R
CARMI*         CLOUDY    31  23  70 CALM      30.11S
$$

ABBREVIATIONS USED IN REMARKS
   TC - TEMPERATURE IN CELSIUS
  WCI - WIND CHILL INDEX
   HX - HEAT INDEX
  VSB - VISIBILITY
$$




USA.gov is the U.S. government's official web portal to all federal, state and local government web resources and services.